* Astronomy

Members Login
Post Info TOPIC: S/2000 J 11


L

Posts: 130166
Date:
S/2000 J 11
Permalink  
 


Orbital elements:
S/2000 J 11
Epoch 2012 Sept. 30.0 TT = JDT 2456200.5                MPC
M 189.30330              (2000.0)            P               Q
n   1.31195066     Peri.  217.01970     -0.61409379     -0.63378819
a   0.0813756      Node   276.24112     +0.78860741     -0.46902933
e   0.2108600      Incl.   28.23731     +0.03141929     -0.61508049
P   0.75           H   16.1           P/d   274.40
From 35 observations 2000 Dec. 5-2011 Nov. 28

MPEC 2012 - R22

S/2000 J 11 was an object believed to be the second-outermost prograde irregular satellite of Jupiter. It was discovered by a team of astronomers from the University of Hawaii led by Scott S. Sheppard in 2000.
Read more



__________________
Page 1 of 1  sorted by
 
Quick Reply

Please log in to post quick replies.



Create your own FREE Forum
Report Abuse
Powered by ActiveBoard